Regional Weather Roundup
Issued by NWS

Home | Current Version | Previous Version | Graphics & Text | Print | Product List | Glossary Off
Versions: 1 2 3 4 5 6 7 8 9 10 11 12 13 14 15 16 17 18 19 20 21 22 23 24 25 26 27 28 29 30 31 32 33 34 35 36 37 38 39 40 41 42 43 44 45 46 47 48 49 50

821
ASUS43 KMKX 200300
RWRWI

WISCONSIN REGIONAL WEATHER ROUNDUP
NATIONAL WEATHER SERVICE MILWAUKEE/SULLIVAN WI
1000 PM CDT TUE SEP 19 2017

NOTE: "FAIR" INDICATES FEW OR NO CLOUDS BELOW 12,000 FEET WITH NO
SIGNIFICANT WEATHER AND/OR OBSTRUCTIONS TO VISIBILITY.

WIZ001-002-006>008-014>016-023>028-200400-
NORTHWEST WISCONSIN

CITY           SKY/WX    TMP DP  RH WIND       PRES   REMARKS
SUPERIOR ARPT  CLOUDY    60  59  96 NE12      29.74F
ASHLAND        CLOUDY    65  58  78 SE7       29.80F
HAYWARD        CLOUDY    68  56  65 SE16G26   29.79F
SIREN          PTCLDY    71  59  65 SE15G24   29.73F
CUMBERLAND     PTCLDY    66  55  68 SE13      29.78S
RICE LAKE      PTCLDY    69  56  65 SE12      29.79F
CHETEK         PTCLDY    68  57  69 SE13G18   29.79F
LADYSMITH      MOCLDY    66  57  74 SE8       29.85F
EAU CLAIRE     NOT AVBL
MENOMONIE      CLOUDY    66  61  84 E7        29.78F
NEW RICHMOND   MOCLDY    69  60  72 SE13G20   29.73F
OSCEOLA        CLOUDY    71  62  73 SE15G24   29.73F
$$

WIZ003>005-009-010-017-018-200400-
NORTH CENTRAL WISCONSIN

CITY           SKY/WX    TMP DP  RH WIND       PRES   REMARKS
MANITOWISH WTR CLOUDY    62  60  94 SE8       29.91R
ARBOR VITAE    CLEAR     63  58  84 SE8       29.91S
WOODRUFF       CLEAR     63  58  84 SE8       29.91S
RHINELANDER    CLEAR     61  56  83 SE9       29.93S
EAGLE RIVER    CLEAR     61  55  80 SE8       29.93F
LAND O LAKES   CLEAR     60  56  87 SE7       29.95S
PHILLIPS       PTCLDY    63  59  88 SE10G16   29.87F
TOMAHAWK         N/A     61  56  83 SE5       29.91S
MEDFORD        CLEAR     63  57  82 E9        29.88S
MERRILL        NOT AVBL
$$

WIZ029-030-035-036-043>047-200400-
CENTRAL WISCONSIN

CITY           SKY/WX    TMP DP  RH WIND       PRES   REMARKS
WAUSAU         CLEAR     62  57  83 E13       29.89S
MOSINEE        CLEAR     63  57  82 E7        29.91S
MARSHFIELD     CLEAR     64  58  80 SE13      29.88R
STEVENS POINT  CLEAR     62  59  89 E10       29.91S
WAUPACA        CLEAR     65  61  87 E8        29.93R
WAUTOMA        CLEAR     64  61  90 E7        29.91S
WISC RAPIDS    CLEAR     65  60  84 SE9       29.90R
CAMP DOUGLAS   NOT AVBL
$$

WIZ011>013-019>022-031-037>040-048>050-200400-
NORTHEAST WISCONSIN

CITY           SKY/WX    TMP DP  RH WIND       PRES   REMARKS
ANTIGO         CLEAR     58  54  85 SE10      29.95R
SHAWANO        CLEAR     61  56  84 E5        29.93F
OCONTO         CLEAR     55  54  95 E3        29.94F
STURGEON BAY   CLEAR     62  60  93 E6        29.96S
GREEN BAY      CLEAR     61  59  93 E6        29.94S
MANITOWOC      CLEAR     57  56  96 CALM      29.95F
APPLETON       PTCLDY    63  55  77 E8        29.92S
CLINTONVILLE   CLEAR     61  55  82 E5        29.93S
OSHKOSH        CLEAR     63  60  90 SE7       29.92S
$$

WIZ032>034-041-042-053>061-200400-
SOUTHWEST WISCONSIN

CITY           SKY/WX    TMP DP  RH WIND       PRES   REMARKS
LA CROSSE      CLOUDY    73  63  70 SE10      29.81R
SPARTA         CLEAR     67  60  77 SE5       29.84S
VIROQUA        CLOUDY    68  64  86 SE9       29.86R
BOSCOBEL       CLEAR     65  62  90 CALM      29.85R
PRAIRIE DU CHI CLEAR     71  62  73 SE6       29.82S
PLATTEVILLE    CLEAR     67  66  97 SE7       29.87R
$$

WIZ056-057-062-063-064-067-068-200400-
SOUTH CENTRAL WISCONSIN

CITY           SKY/WX    TMP DP  RH WIND       PRES   REMARKS
REEDSBURG      CLEAR     67  64  90 SE6       29.86F
BARABOO/DELLS  CLEAR     68  62  82 SE10G16   29.88S
LONE ROCK      NOT AVBL
MINERAL POINT  CLEAR     70  64  83 SE13      29.88R
MADISON        CLEAR     66  63  90 SE10      29.90S
MIDDLETON      CLEAR     69  64  84 SE9       29.90R
WATERTOWN      CLEAR     62  62 100 E5        29.92R FOG
MONROE         CLEAR     68  61  77 E8        29.90S
JANESVILLE     CLEAR     64  64 100 E6        29.90S
$$

WIZ051-052-058>065-066-070>072-200400-
SOUTHEAST WISCONSIN

CITY           SKY/WX    TMP DP  RH WIND       PRES   REMARKS
MILWAUKEE      CLEAR     65  63  93 CALM      29.93S
WAUKESHA       NOT AVBL
MILWAUKEE/TIMM CLOUDY    64  59  82 SE3       29.95S
RACINE         CLEAR     63  63 100 NE3       29.95F FOG
BURLINGTON     MOCLDY    63  63 100 E8        29.93S FOG
KENOSHA        FOG       61  60  97 E3        29.94S VSB 1/4
FOND DU LAC    CLEAR     63  58  83 SE13      29.92F
SHEBOYGAN      FOG       56  56 100 CALM      29.94F VSB 3/4
WEST BEND        N/A     59  59 100 CALM      29.95R FOG
JUNEAU         MOCLDY    62  60  96 E6        29.94R FOG
$$

LSZ147-162-200400-
LAKE SUPERIOR

STATION/POSITION TIME  TEMP    WIND        PRES    WAVE
                       AIR SEA DIR/SP/G            HT/PER
                 (UTC) (F)     (DEG/KT/KT) (MB)    (FT/S)
W MID LAKE BUOY  0150   60 55  120/ 14/ 16 1011.1F   2/ 4
DEVILS ISLAND    0200   64     120/ 11/ 13 1009.8F
PORT WING        0230   65     130/  4/  8 1008.1F
SAXON HARBOR     0240   68     170/  5/ 13 1009.1F
$$

LMZ867-665-643>646-200400-
LAKE MICHIGAN

STATION/POSITION TIME  TEMP    WIND        PRES    WAVE
                       AIR SEA DIR/SP/G            HT/PER
                 (UTC) (F)     (DEG/KT/KT) (MB)    (FT/S)
S GREEN BAY BUOY 0200   64 67   90/ 10/ 12 1014.1
N MID LAKE BUOY  0150   65 65   70/ 10/ 12 1015.0S   1
NORTHPORT PIER   0240   66      80/  8/ 10 1014.2S
KEWAUNEE LAKESHO 0230   61      10/  1/  2 1013.4S
SHEBOYGAN LAKESH 0200   66      90/  6/  6 1013.8R
PORT WASHINGTON  0240   67     100/  5/  7 1014.6S
ATWATER BUOY     0109   66 68   90/  4/  8 1014.1R
MILWAUKEE LAKESH 0230   65      90/  5/  5   N/A
S MID LAKE BUOY  0150   69 69   40/  6/  8 1013.5S   0
KENOSHA   LAKESH 0200   67      80/  5/  6 1013.5
$$

TC  - TEMPERATURE IN CELSIUS
VSB - VISIBILITY IN STATUTE MILES
WCI - WIND CHILL INDEX
HX  - HEAT INDEX





USA.gov is the U.S. government's official web portal to all federal, state and local government web resources and services.